Weather History for KFSO - August, 2013

Change the Weather History Date:

Tuesday, August 27, 2013

  Actual Average (KPBG) Record (KPBG)
Temperature  
Mean Temperature 75 °F 66 °F  
Max Temperature 82 °F 77 °F 95 °F (1948)
Min Temperature 69 °F 54 °F 42 °F (1989)
Degree Days  
Heating Degree Days 0 2  
Month to date heating degree days 19  
Since 1 June heating degree days 115  
Since 1 July heating degree days 30  
Cooling Degree Days 10 3  
Month to date cooling degree days 98  
Year to date cooling degree days 311  
Since 1 June cooling degree days 303  
Growing Degree Days 25 (Base 50)    
Moisture  
Dew Point 67 °F    
Average Humidity 82    
Maximum Humidity 91    
Minimum Humidity 59    
Precipitation  
Precipitation 0.00 in - 0.80 in (1979)
Month to date precipitation  
Year to date precipitation  
Sea Level Pressure  
Sea Level Pressure 29.89 in    
Wind  
Wind Speed 0 mph (NNW)    
Max Wind Speed 5 mph    
Max Gust Speed -    
Visibility 6 miles    
Events Rain    
T = Trace of Precipitation, MM = Missing Value Source: NWS Daily Summary

Daily Weather History Graph

Daily Weather History Graph

Search for Another Location

Airport or City:

Trip Planner

Search our weather history database for the weather conditions in past years. The results will help you decide how hot, cold, wet, or windy it might be!

Date:

Astronomy

Aug. 27, 2013 Rise Set
Actual Time 6:08 AM EDT 7:38 PM EDT
Civil Twilight 5:38 AM EDT 8:08 PM EDT
Nautical Twilight 5:00 AM EDT 8:45 PM EDT
Astronomical Twilight 4:21 AM EDT 9:25 PM EDT
Moon 11:09 PM EDT (8/27) 1:23 PM EDT (8/27)
Length of Visible Light 14h 30m
Length of Day
13h 29m
Waning Gibbous, 57% of the Moon is Illuminated
Aug 27
Waning Gibbous
Aug 28
Last Quarter
Sep 5
New
Sep 12
First Quarter
Sep 19
Full

Hourly Weather History & Observations

Time (EDT) Temp. Heat Index Dew Point Humidity Pressure Visibility Wind Dir Wind Speed Gust Speed Precip Events Conditions
12:15 AM 69.4 °F - 65.8 °F 88% 29.87 in 7.0 mi Calm Calm - N/A   Overcast
12:35 AM 69.4 °F - 65.7 °F 88% 29.88 in 7.0 mi Calm Calm - N/A   Overcast
12:55 AM 69.4 °F - 65.7 °F 88% 29.88 in 7.0 mi Calm Calm - N/A   Overcast
1:15 AM 69.4 °F - 65.7 °F 88% 29.88 in 5.0 mi Calm Calm - N/A Rain Rain
1:35 AM 69.4 °F - 65.8 °F 88% 29.88 in 5.0 mi Calm Calm - N/A   Overcast
1:55 AM 69.4 °F - 66.2 °F 89% 29.88 in 5.0 mi Calm Calm - N/A   Overcast
2:15 AM 69.4 °F - 66.2 °F 89% 29.88 in 4.0 mi Calm Calm - N/A   Overcast
2:35 AM 69.4 °F - 66.2 °F 89% 29.88 in 3.0 mi Calm Calm - N/A   Overcast
2:55 AM 69.4 °F - 66.4 °F 90% 29.88 in 2.5 mi Calm Calm - N/A   Drizzle
3:15 AM 69.4 °F - 66.4 °F 90% 29.88 in 2.5 mi Calm Calm - N/A   Overcast
3:35 AM 69.4 °F - 66.4 °F 90% 29.88 in 2.5 mi Calm Calm - N/A   Overcast
3:55 AM 69.4 °F - 66.6 °F 91% 29.87 in 2.0 mi Calm Calm - N/A   Overcast
4:15 AM 69.4 °F - 66.6 °F 91% 29.87 in 1.5 mi Calm Calm - N/A   Overcast
4:35 AM 69.4 °F - 66.7 °F 91% 29.88 in 2.0 mi Calm Calm - N/A   Overcast
4:55 AM 69.4 °F - 66.7 °F 91% 29.87 in 4.0 mi Calm Calm - N/A   Overcast
5:15 AM 69.4 °F - 66.7 °F 91% 29.87 in 4.0 mi Calm Calm - N/A   Overcast
5:35 AM 69.4 °F - 66.7 °F 91% 29.88 in 4.0 mi Calm Calm - N/A   Overcast
5:55 AM 69.4 °F - 66.6 °F 91% 29.88 in 4.0 mi Calm Calm - N/A   Overcast
6:15 AM 69.4 °F - 66.6 °F 91% 29.89 in 5.0 mi North 3.5 mph - N/A   Overcast
6:35 AM 69.4 °F - 66.6 °F 91% 29.89 in 4.0 mi Calm Calm - N/A   Overcast
6:55 AM 69.4 °F - 66.6 °F 91% 29.89 in 3.0 mi Calm Calm - N/A   Overcast
7:15 AM 69.4 °F - 66.6 °F 91% 29.89 in 2.5 mi Calm Calm - N/A   Overcast
7:35 AM 69.4 °F - 66.6 °F 91% 29.89 in 2.5 mi Calm Calm - N/A   Overcast
7:55 AM 69.4 °F - 66.6 °F 91% 29.90 in 3.0 mi Calm Calm - N/A   Overcast
8:15 AM 69.4 °F - 66.6 °F 91% 29.90 in 4.0 mi Calm Calm - N/A   Overcast
8:35 AM 69.4 °F - 66.4 °F 90% 29.91 in 2.5 mi Calm Calm - N/A   Overcast
8:55 AM 69.4 °F - 66.6 °F 91% 29.91 in 2.0 mi Calm Calm - N/A   Overcast
9:15 AM 69.4 °F - 66.6 °F 91% 29.91 in 1.0 mi Calm Calm - N/A   Overcast
9:35 AM 69.4 °F - 66.6 °F 91% 29.92 in 1.0 mi Calm Calm - N/A   Overcast
9:55 AM 69.6 °F - 66.9 °F 91% 29.92 in 3.0 mi Calm Calm - N/A   Overcast
10:15 AM 72.3 °F - 68.9 °F 89% 29.91 in 7.0 mi WNW 3.5 mph - N/A   Overcast
10:35 AM 74.5 °F - 69.3 °F 84% 29.91 in 10.0 mi West 3.5 mph - N/A   Overcast
10:55 AM 74.5 °F - 67.6 °F 79% 29.91 in 10.0 mi NNW 3.5 mph - N/A   Overcast
11:15 AM 74.5 °F - 67.5 °F 79% 29.92 in 10.0 mi Calm Calm - N/A   Overcast
11:35 AM 74.5 °F - 66.7 °F 77% 29.92 in 10.0 mi Calm Calm - N/A   Overcast
11:55 AM 74.5 °F - 66.7 °F 77% 29.92 in 10.0 mi NNW 3.5 mph - N/A   Overcast
12:15 PM 75.9 °F - 66.7 °F 73% 29.92 in 10.0 mi Calm Calm - N/A   Overcast
12:35 PM 74.5 °F - 67.5 °F 79% 29.92 in 10.0 mi Calm Calm - N/A   Overcast
12:55 PM 74.5 °F - 68.0 °F 80% 29.91 in 10.0 mi Calm Calm - N/A   Overcast
1:15 PM 75.0 °F - 67.1 °F 76% 29.91 in 7.0 mi Calm Calm - N/A   Overcast
1:35 PM 77.0 °F - 66.4 °F 70% 29.91 in 10.0 mi Calm Calm - N/A   Overcast
1:55 PM 77.0 °F - 65.5 °F 67% 29.90 in 10.0 mi Calm Calm - N/A   Overcast
2:15 PM 79.7 °F - 66.2 °F 63% 29.90 in 10.0 mi Calm Calm - N/A   Overcast
2:35 PM 79.7 °F - 65.8 °F 62% 29.90 in 10.0 mi Calm Calm - N/A   Overcast
2:55 PM 79.9 °F - 65.7 °F 62% 29.89 in 10.0 mi Calm Calm - N/A   Overcast
3:15 PM 79.7 °F - 65.7 °F 62% 29.88 in 10.0 mi Calm Calm - N/A   Overcast
3:35 PM 79.7 °F - 66.2 °F 63% 29.88 in 10.0 mi Calm Calm - N/A   Mostly Cloudy
3:55 PM 80.6 °F 82.9 °F 66.7 °F 63% 29.87 in 10.0 mi North 3.5 mph - N/A   Mostly Cloudy
4:15 PM 80.8 °F 82.8 °F 65.8 °F 60% 29.87 in 10.0 mi Calm Calm - N/A   Scattered Clouds
4:35 PM 81.9 °F 84.1 °F 66.4 °F 59% 29.87 in 10.0 mi NE 3.5 mph - N/A   Clear
4:55 PM 79.7 °F - 66.7 °F 64% 29.87 in 10.0 mi NNW 4.6 mph - N/A   Scattered Clouds
5:15 PM 80.2 °F 82.5 °F 66.6 °F 63% 29.87 in 10.0 mi North 3.5 mph - N/A   Clear
5:35 PM 79.7 °F - 66.4 °F 64% 29.87 in 10.0 mi Calm Calm - N/A   Clear
5:55 PM 79.7 °F - 66.6 °F 64% 29.87 in 10.0 mi North 3.5 mph - N/A   Clear
6:15 PM 79.7 °F - 67.5 °F 66% 29.87 in 10.0 mi North 3.5 mph - N/A   Clear
6:35 PM 79.7 °F - 65.8 °F 62% 29.87 in 10.0 mi North 4.6 mph - N/A   Clear
6:55 PM 77.0 °F - 66.6 °F 70% 29.88 in 10.0 mi Calm Calm - N/A   Scattered Clouds
7:15 PM 74.5 °F - 66.9 °F 77% 29.88 in 10.0 mi Calm Calm - N/A   Scattered Clouds
7:35 PM 74.5 °F - 68.0 °F 80% 29.87 in 10.0 mi Calm Calm - N/A   Clear
7:55 PM 74.5 °F - 69.1 °F 83% 29.87 in 7.0 mi Calm Calm - N/A   Clear
8:15 PM 72.9 °F - 68.2 °F 85% 29.87 in 10.0 mi Calm Calm - N/A   Clear
8:35 PM 71.8 °F - 67.5 °F 86% 29.87 in 7.0 mi Calm Calm - N/A   Clear
8:55 PM 70.3 °F - 66.7 °F 88% 29.88 in 7.0 mi Calm Calm - N/A   Clear
9:15 PM 69.4 °F - 66.0 °F 89% 29.89 in 5.0 mi Calm Calm - N/A   Clear
9:35 PM 69.4 °F - 66.2 °F 89% 29.89 in 5.0 mi Calm Calm - N/A   Clear
9:55 PM 69.4 °F - 66.2 °F 89% 29.90 in 4.0 mi Calm Calm - N/A   Clear
10:15 PM 69.4 °F - 66.4 °F 90% 29.90 in 5.0 mi Calm Calm - N/A   Mostly Cloudy
10:35 PM 69.4 °F - 66.4 °F 90% 29.90 in 5.0 mi SSE 3.5 mph - N/A   Scattered Clouds
10:55 PM 69.4 °F - 66.4 °F 90% 29.89 in 4.0 mi Calm Calm - N/A   Clear
11:15 PM 69.4 °F - 66.6 °F 91% 29.89 in 4.0 mi Calm Calm - N/A   Clear
11:35 PM 69.4 °F - 66.6 °F 91% 29.90 in 4.0 mi Calm Calm - N/A   Clear
11:55 PM 69.4 °F - 66.7 °F 91% 29.90 in 3.0 mi Calm Calm - N/A   Clear